Flag for Germany Weather past 2 weeks in Kempten, Bavaria, Germany

Now
57 °F

Light rain. Overcast.


Feels Like: 57 °F
Forecast: 44 / 73 °F
Wind: 1 mph from Southeast

Location: Kempten

Current Time: Aug 27, 2014 at 7:29:06 PM

Latest Report: Aug 27, 2014 at 7:00 PM


Visibility: 6 mi

Pressure: 30.05 "Hg

Humidity: 94%

Dew point: 56 °F

Location of KemptenLocation

Historic Weather in Kempten — Graph

°F

Kempten temperature yesterday

Maximum temperature yesterday: 64 °F (at 3:00 PM)
Minimum temperature yesterday: 53 °F (at 3:00 AM)
Average temperature yesterday: 58 °F

Past Weeks' High & Low Weather Summary

 TemperatureHumidityPressure
High69 °F (Aug 18, 4:00 PM)100% (Aug 19, 6:00 AM)30.21 "Hg (Aug 19, 6:00 AM)
Low40 °F (Aug 25, 5:00 AM)43% (Aug 22, 3:00 PM)29.66 "Hg (Aug 13, 2:00 PM)
Average56 °F79%29.98 "Hg
* Reported Aug 12 6:00 PM — Aug 27 5:00 PM, Kempten, Weather by CustomWeather, © 2014

Note: Actual official high and low records may vary slightly from our data, if they occured in-between our weather recording intervals... More about our weather records

Advertising

Kempten weather history for previous 24 hours

 ConditionsComfort  
Time TempWeatherWind HumidityBarometerVisibility
5:00 PM
Aug 27
57 °FDrizzle. Overcast.2 mph93%30.04 "Hg25 mi
4:00 PM56 °FLight rain. Overcast.2 mph90%30.04 "Hg6 mi
3:00 PM57 °FOvercast.1 mph92%30.02 "Hg22 mi
2:00 PM55 °FLight freezing rain. Overcast.2 mph91%30.01 "Hg6 mi
1:00 PM62 °FOvercast.5 mph73%29.96 "Hg31 mi
12:00 PM60 °FOvercast.3 mph83%29.96 "Hg25 mi
11:00 AM59 °FOvercast.3 mph85%29.96 "Hg34 mi
9:00 AM56 °FOvercast.3 mph92%29.95 "Hg43 mi
8:00 AM55 °FLight rain. Fog.3 mph93%29.92 "Hg4 mi
7:00 AM56 °FLight rain. Overcast.3 mph92%29.90 "Hg11 mi
6:00 AM55 °FOvercast.2 mph95%29.90 "Hg34 mi
5:00 AM55 °FDrizzle. Overcast.2 mph94%29.88 "Hg12 mi
4:00 AM56 °FDrizzle. Overcast.3 mph90%29.87 "Hg25 mi
3:00 AM56 °FLight rain. Overcast.2 mph88%29.86 "Hg9 mi
2:00 AM59 °FLight rain. Overcast.3 mph82%29.83 "Hg4 mi
1:00 AM61 °FOvercast.3 mph72%29.83 "Hg43 mi
12:00 AM60 °FPassing clouds.3 mph75%29.83 "Hg43 mi
10:00 PM
Aug 26
61 °FOvercast.3 mph75%29.80 "Hg43 mi
9:00 PM61 °FOvercast.3 mph80%29.79 "Hg43 mi
8:00 PM61 °FOvercast.3 mph81%29.76 "Hg43 mi
7:00 PM62 °FOvercast.3 mph77%29.75 "Hg43 mi
Weather by CustomWeather, © 2014

See weather overviewHow to use our weather pages